Reno, NV

10:49 AM PST on December 15, 2019 (GMT -0800)
Reno-Tahoe International

Weather History for KRNO - August, 2019

Change the Weather History Date:

Monday, August 12, 2019

  Actual Average Record
Temperature  
Mean Temperature 74 °F 74 °F  
Max Temperature 91 °F 92 °F 102 °F (1944)
Min Temperature 57 °F 57 °F 34 °F (1962)
Degree Days  
Heating Degree Days 0 0  
Month to date heating degree days 0 0  
Since 1 June heating degree days 15 61  
Since 1 July heating degree days 0 5  
Cooling Degree Days 9 9  
Month to date cooling degree days 132 121  
Year to date cooling degree days 723 608  
Since 1 June cooling degree days 709 571  
Growing Degree Days 24 (Base 50)    
Moisture  
Dew Point 39 °F    
Average Humidity 29    
Maximum Humidity 53    
Minimum Humidity 14    
Precipitation  
Precipitation 0.00 in 0.01 in 0.34 in (1930)
Month to date precipitation T 0.11  
Year to date precipitation 8.76 4.57  
Snow  
Snow 0.00 in 0.00 in 0.00 in ()
Month to date snowfall 0.0 0.0  
Since 1 June snowfall 0.0 T  
Since 1 July snowfall 0.0 0.0  
Snow Depth 0.00 in    
Sea Level Pressure  
Sea Level Pressure 29.98 in    
Wind  
Wind Speed 4 mph ()    
Max Wind Speed 18 mph    
Max Gust Speed 23 mph    
Visibility 10.0 miles    
Events      
T = Trace of Precipitation, MM = Missing Value Source: Averaged Metar Reports

Daily Weather History Graph

Daily Weather History Graph

Search for Another Location

Airport or City:

Astronomy

Aug. 12, 2019 Rise Set
Actual Time 6:08 AM PDT 7:58 PM PDT
Civil Twilight 5:39 AM PDT 8:27 PM PDT
Nautical Twilight 5:04 AM PDT 9:02 PM PDT
Astronomical Twilight 4:26 AM PDT 9:40 PM PDT
Moon 6:32 PM PDT (8/12) 3:22 AM PDT (8/12)
Length of Visible Light 14h 48m
Length of Day
13h 50m
Waxing Gibbous, 93% of the Moon is Illuminated
Aug 12
Waxing Gibbous
Aug 15
Full
Aug 23
Last Quarter
Aug 30
New
Sep 5
First Quarter

Hourly Weather History & Observations

Time (PDT) Temp. Dew Point Humidity Pressure Visibility Wind Dir Wind Speed Gust Speed Precip Events Conditions
12:55 AM 64.9 °F 39.0 °F 39% 30.01 in 10.0 mi NW 3.5 mph - N/A   Clear
1:55 AM 63.0 °F 39.0 °F 41% 30.01 in 10.0 mi West 5.8 mph - N/A   Clear
2:55 AM 62.1 °F 39.0 °F 43% 30.01 in 10.0 mi West 3.5 mph - N/A   Clear
4:55 AM 59.0 °F 39.0 °F 48% 30.03 in 10.0 mi West 3.5 mph - N/A   Clear
5:55 AM 57.9 °F 39.0 °F 49% 30.04 in 10.0 mi West 4.6 mph - N/A   Clear
6:55 AM 57.0 °F 39.9 °F 53% 30.06 in 10.0 mi South 3.5 mph - N/A   Clear
8:55 AM 66.9 °F 39.9 °F 37% 30.05 in 10.0 mi Calm Calm - N/A   Clear
9:55 AM 71.1 °F 39.9 °F 32% 30.04 in 10.0 mi Calm Calm - N/A   Clear
10:55 AM 77.0 °F 39.0 °F 25% 30.03 in 10.0 mi Variable 4.6 mph - N/A   Clear
11:55 AM 81.0 °F 37.0 °F 21% 30.01 in 10.0 mi NNE 4.6 mph - N/A   Clear
12:55 PM 82.0 °F 36.0 °F 19% 29.97 in 10.0 mi Calm Calm - N/A   Clear
1:55 PM 86.0 °F 33.1 °F 15% 29.95 in 10.0 mi North 9.2 mph - N/A   Partly Cloudy
2:55 PM 88.0 °F 33.1 °F 14% 29.93 in 10.0 mi Variable 4.6 mph 19.6 mph N/A   Partly Cloudy
3:55 PM 88.0 °F 34.0 °F 15% 29.91 in 10.0 mi Calm Calm - N/A   Partly Cloudy
4:55 PM 90.0 °F 34.0 °F 14% 29.89 in 10.0 mi West 4.6 mph - N/A   Partly Cloudy
5:55 PM 86.0 °F 35.1 °F 16% 29.90 in 10.0 mi Calm Calm - N/A   Scattered Clouds
6:55 PM 87.1 °F 42.1 °F 21% 29.90 in 10.0 mi NW 13.8 mph - N/A   Scattered Clouds
7:55 PM 82.9 °F 43.0 °F 24% 29.91 in 10.0 mi West 12.7 mph - N/A   Partly Cloudy
8:55 PM 80.1 °F 43.0 °F 27% 29.94 in 10.0 mi North 11.5 mph - N/A   Clear
9:55 PM 78.1 °F 42.1 °F 28% 29.96 in 10.0 mi NW 8.1 mph - N/A   Clear
10:55 PM 75.0 °F 42.1 °F 31% 29.97 in 10.0 mi NNE 3.5 mph - N/A   Clear
11:55 PM 73.9 °F 43.0 °F 33% 29.96 in 10.0 mi West 5.8 mph - N/A   Clear